EW8530 Weather Reports


Display with metric or nautical units.
time (UTC)temp
F
wind
direction
speed
MPH
gust
MPH
rain 1hr
in
rain 24hr
in
rain mn
in
humidity
%
barometer
mb
20260505140630 55 294 3.0 12.0 3.11 4.29 0.86 99 1018.1
20260505140140 55 289 5.0 12.0 3.11 4.17 0.83 98 1018.3
20260505130141 66 249 3.0 7.0 0.08 1.06 0.21 86 1016.3
20260505124625 69 224 1.0 12.0 0.00 0.98 0.20 79 1015.9
20260505124132 69 1 5.0 16.0 0.00 0.98 0.20 76 1016.0
20260505123640 70 10 6.0 16.0 0.00 0.98 0.20 75 1015.9
20260505123127 70 325 3.0 13.0 0.00 0.98 0.20 75 1015.8
20260505122631 70 31 6.0 13.0 0.00 0.98 0.20 75 1015.5
20260505122125 70 20 7.0 13.0 0.00 0.98 0.20 74 1015.8
20260505121631 71 355 4.0 14.0 0.00 0.98 0.20 74 1015.8
20260505121142 71 307 7.0 14.0 0.00 0.98 0.20 74 1015.7
20260505120639 71 51 5.0 10.0 0.00 0.98 0.20 75 1015.6
20260505120140 71 46 3.0 15.0 0.00 0.98 0.20 75 1015.4
20260505115627 71 275 5.0 15.0 0.00 0.98 0.20 74 1015.5
20260505115134 71 341 4.0 20.0 0.00 0.98 0.20 74 1015.6
20260505114639 71 354 9.0 20.0 0.00 0.98 0.20 74 1015.7
20260505114140 72 343 6.0 16.0 0.00 0.98 0.20 73 1015.7
20260505113635 72 56 7.0 16.0 0.00 0.98 0.20 72 1015.8
20260505113155 72 331 6.0 15.0 0.00 0.98 0.20 73 1016.0
20260505112640 72 75 9.0 15.0 0.00 0.98 0.20 73 1016.1
20260505112127 72 12 8.0 18.0 0.00 0.98 0.20 73 1016.3
20260505111634 72 360 7.0 18.0 0.00 0.98 0.20 73 1016.4
20260505111141 72 78 7.0 18.0 0.00 0.98 0.20 73 1016.4
20260505110628 72 349 8.0 19.0 0.00 0.98 0.20 73 1016.6
20260505110132 72 339 8.0 19.0 0.00 0.98 0.20 73 1016.6
20260505102145 72 296 7.0 14.0 0.00 0.98 0.20 74 1017.4
20260505101636 72 339 6.0 14.0 0.00 0.98 0.20 75 1017.6
20260505101135 71 343 2.0 14.0 0.00 0.98 0.20 76 1017.5
20260505100644 71 71 6.0 14.0 0.00 0.98 0.20 75 1017.7
20260505100129 71 355 6.0 16.0 0.00 0.98 0.20 75 1017.6
20260505095630 72 10 8.0 16.0 0.00 0.98 0.20 74 1017.9
20260505095124 72 69 5.0 15.0 0.00 0.98 0.20 75 1017.8
20260505094638 71 354 5.0 12.0 0.00 0.98 0.20 76 1017.9
20260505094129 71 352 3.0 22.0 0.00 0.98 0.20 77 1017.9
20260505093629 71 2 6.0 20.0 0.00 0.98 0.20 76 1018.1
20260505093134 70 51 10.0 20.0 0.00 0.98 0.20 76 1018.3
20260505092639 70 66 9.0 18.0 0.00 0.98 0.20 76 1018.6
20260505092126 70 345 9.0 18.0 0.00 0.98 0.20 77 1018.5
20260505091635 70 20 8.0 18.0 0.00 0.98 0.20 77 1018.6
20260505091147 69 38 7.0 21.0 0.00 0.98 0.20 79 1018.8
20260505090630 68 334 11.0 21.0 0.00 0.98 0.20 78 1019.0
20260505090138 68 5 9.0 18.0 0.00 0.98 0.20 79 1019.1
20260505085641 67 356 6.0 18.0 0.00 0.98 0.20 80 1019.1
20260505085128 67 47 6.0 13.0 0.00 0.98 0.20 82 1019.1
20260505084626 67 42 5.0 16.0 0.00 0.98 0.20 83 1019.3
20260505084124 66 353 7.0 15.0 0.00 0.98 0.20 83 1019.5
20260505083731 66 349 4.0 10.0 0.00 0.98 0.20 84 1019.7
20260505083134 66 336 5.0 15.0 0.00 0.98 0.20 85 1019.9
20260505082635 65 352 8.0 15.0 0.00 0.98 0.20 84 1019.9
20260505082140 65 70 8.0 14.0 0.00 0.98 0.20 85 1019.8
20260505081640 64 339 9.0 15.0 0.00 0.98 0.20 86 1019.8
20260505081140 64 12 9.0 15.0 0.00 0.98 0.20 87 1019.9
20260505080625 64 1 5.0 12.0 0.00 0.98 0.20 88 1020.1
20260505080140 63 353 6.0 12.0 0.00 0.98 0.20 89 1020.2
20260505075639 63 80 5.0 11.0 0.00 0.98 0.20 90 1020.2
20260505075153 63 74 5.0 15.0 0.00 0.98 0.20 89 1020.4
20260505074629 64 14 8.0 16.0 0.00 0.98 0.20 89 1020.4
20260505074135 64 356 8.0 15.0 0.00 0.98 0.20 90 1020.4
20260505073640 64 43 9.0 15.0 0.00 0.98 0.20 91 1020.4
20260505073132 63 72 5.0 11.0 0.00 0.98 0.20 90 1020.4
20260505072701 63 355 5.0 11.0 0.00 0.98 0.20 91 1020.4
20260505072127 62 359 4.0 11.0 0.00 0.98 0.20 92 1020.4
20260505071632 62 93 4.0 10.0 0.00 0.98 0.20 93 1020.4
20260505071140 61 64 3.0 9.0 0.00 0.98 0.20 94 1020.5
20260505070624 60 73 4.0 9.0 0.00 0.98 0.20 95 1020.5
20260505070133 60 355 3.0 8.0 0.00 0.98 0.20 95 1020.6
20260505065702 60 1 2.0 8.0 0.00 0.98 0.20 96 1020.4
20260505065131 59 354 4.0 12.0 0.00 0.98 0.20 97 1020.5
20260505064640 59 64 4.0 12.0 0.00 0.98 0.20 97 1020.7
20260505064128 59 355 4.0 11.0 0.00 0.98 0.20 98 1020.7
20260505063637 58 352 3.0 9.0 0.00 0.98 0.20 98 1020.7
20260505063125 57 89 2.0 6.0 0.00 0.98 0.20 98 1020.7
20260505062656 57 64 2.0 8.0 0.00 0.98 0.20 98 1020.7
20260505062123 57 58 4.0 9.0 0.00 0.98 0.20 98 1020.7
20260505061631 57 6 3.0 12.0 0.00 0.98 0.20 98 1020.7
20260505061141 57 69 5.0 12.0 0.00 0.98 0.20 98 1020.9
20260505060652 57 324 4.0 10.0 0.00 0.98 0.20 98 1020.9
20260505060140 57 46 4.0 14.0 0.00 0.98 0.20 98 1020.8
20260505055628 56 64 6.0 14.0 0.00 0.98 0.20 98 1020.8
20260505055138 56 355 5.0 16.0 0.00 0.98 0.20 98 1020.9
20260505054648 56 58 5.0 14.0 0.00 0.98 0.20 99 1021.1
20260505054135 56 349 7.0 14.0 0.00 0.98 0.20 99 1020.9
20260505053626 56 8 6.0 13.0 0.00 0.98 0.20 99 1021.0
20260505053134 56 360 6.0 14.0 0.00 0.98 0.20 99 1021.0
20260505052638 55 97 6.0 14.0 0.04 0.98 0.20 99 1020.8
20260505052141 55 28 4.0 9.0 0.08 0.98 0.20 99 1021.0
20260505051633 55 60 3.0 9.0 0.12 0.98 0.20 99 1021.0
20260505051129 55 106 4.0 10.0 0.12 0.98 0.20 99 1021.0
20260505050637 55 43 5.0 11.0 0.12 0.98 0.20 99 1021.0
20260505050124 55 54 5.0 12.0 0.12 0.98 0.20 99 1021.0
20260505041639 55 46 6.0 11.0 0.00 0.87 0.17 99 1021.8
20260505041126 55 5 3.0 6.0 0.00 0.87 0.17 99 1021.4
20260505040629 55 50 2.0 5.0 0.00 0.87 0.17 99 1021.0
20260505040136 55 117 0.0 5.0 0.00 0.87 0.17 99 1021.1
20260505035625 55 118 1.0 4.0 0.04 0.87 0.17 99 1021.1
20260505035131 55 358 1.0 7.0 0.12 0.87 0.17 99 1021.1
20260505034636 55 340 1.0 7.0 0.20 0.87 0.17 99 1021.3
20260505034154 55 343 3.0 6.0 0.28 0.87 0.17 99 1021.3
20260505033640 55 348 2.0 6.0 0.59 0.87 0.17 99 1021.5
20260505033124 55 353 2.0 6.0 0.87 0.87 0.17 99 1021.5
20260505032627 55 5 2.0 6.0 0.87 0.87 0.17 99 1021.7
20260505032133 55 58 2.0 4.0 0.87 0.87 0.17 99 1021.7
20260505031626 55 298 1.0 4.0 0.87 0.87 0.17 99 1021.7
20260505031134 55 348 1.0 4.0 0.87 0.87 0.17 99 1021.8
20260505030642 55 284 1.0 4.0 0.87 0.87 0.17 99 1021.9
20260505030130 55 279 1.0 7.0 0.87 0.87 0.17 99 1022.1
20260505025638 55 266 4.0 10.0 0.83 0.83 0.17 99 1022.0
20260505025140 55 271 5.0 15.0 0.75 0.75 0.15 99 1022.2
20260505024627 55 297 7.0 13.0 0.67 0.67 0.13 99 1022.3
20260505024140 55 276 6.0 12.0 0.59 0.59 0.12 99 1022.4
20260505023626 55 343 6.0 11.0 0.28 0.28 0.06 99 1022.6
20260505023134 54 290 5.0 12.0 0.00 0.00 0.00 99 1022.6
20260505022645 54 277 6.0 11.0 0.00 0.00 0.00 99 1022.7
20260505022149 54 124 0.0 1.0 0.00 0.00 0.00 99 1020.9
20260505021626 54 124 0.0 0.0 0.00 0.00 0.00 99 1020.7
20260505021149 54 124 0.0 0.0 0.00 0.00 0.00 99 1020.6
20260505020624 53 124 0.0 0.0 0.00 0.00 0.00 99 1020.6
20260505020137 53 125 0.0 0.0 0.00 0.00 0.00 99 1020.6
20260505015641 53 124 0.0 0.0 0.00 0.00 0.00 99 1020.6
20260505015126 53 124 0.0 0.0 0.00 0.00 0.00 99 1020.8
20260505014659 53 124 0.0 0.0 0.00 0.00 0.00 99 1020.8
20260505014136 54 124 0.0 0.0 0.00 0.00 0.00 99 1020.8
20260505013656 53 125 0.0 0.0 0.00 0.00 0.00 99 1020.8
20260505013137 53 125 0.0 0.0 0.00 0.00 0.00 99 1020.7
20260505012631 54 124 0.0 0.0 0.00 0.00 0.00 99 1020.9
20260505012124 54 124 0.0 0.0 0.00 0.00 0.00 99 1020.8
20260505011626 54 124 0.0 0.0 0.00 0.00 0.00 99 1020.8
20260505010628 54 124 0.0 0.0 0.00 0.00 0.00 98 1020.9
20260505010138 54 124 0.0 0.0 0.00 0.00 0.00 98 1020.9
20260505005623 54 124 0.0 0.0 0.00 0.00 0.00 98 1021.0
20260505005129 54 124 0.0 0.0 0.00 0.00 0.00 98 1021.1
20260505004634 54 125 0.0 0.0 0.00 0.00 0.00 98 1021.1
20260505004202 54 124 0.0 0.0 0.00 0.00 0.00 98 1021.1
20260505003658 54 124 0.0 0.0 0.00 0.00 0.00 98 1021.1
20260505003142 54 124 0.0 0.0 0.00 0.00 0.00 98 1021.1
20260505002641 54 124 0.0 0.0 0.00 0.00 0.00 98 1021.3
20260505002149 54 124 0.0 0.0 0.00 0.00 0.00 98 1021.3
20260505001626 54 124 0.0 0.0 0.00 0.00 0.00 98 1021.4
20260505001142 55 124 0.0 0.0 0.00 0.00 0.00 98 1021.5
20260505000624 55 124 0.0 0.0 0.00 0.00 0.00 98 1021.6
20260505000129 55 124 0.0 0.0 0.00 0.00 0.00 97 1021.5
20260504235631 55 124 0.0 1.0 0.00 0.00 0.00 97 1021.4
20260504235143 55 124 0.0 1.0 0.00 0.00 0.00 97 1021.4
20260504234634 55 124 0.0 1.0 0.00 0.00 0.00 97 1021.5
20260504234137 56 124 0.0 2.0 0.00 0.00 0.00 97 1021.5
20260504233652 56 124 0.0 2.0 0.00 0.00 0.00 97 1021.6
20260504233137 56 178 0.0 2.0 0.00 0.00 0.00 97 1021.6
20260504232637 55 179 0.0 1.0 0.00 0.00 0.00 97 1021.8
20260504232123 55 179 0.0 1.0 0.00 0.00 0.00 97 1021.9
20260504231630 56 179 0.0 1.0 0.00 0.00 0.00 97 1022.0
20260504231136 56 179 0.0 3.0 0.00 0.00 0.00 97 1022.1
20260504230638 56 180 0.0 3.0 0.00 0.00 0.00 97 1022.2
20260504230142 55 182 0.0 2.0 0.00 0.00 0.00 97 1022.3
20260504225648 55 180 0.0 1.0 0.00 0.00 0.00 97 1022.2
20260504225133 55 180 0.0 1.0 0.00 0.00 0.00 97 1022.2
20260504224639 55 116 0.0 0.0 0.00 0.00 0.00 97 1022.1
20260504224141 55 116 0.0 0.0 0.00 0.00 0.00 97 1022.0
20260504223626 55 116 0.0 0.0 0.00 0.00 0.00 97 1022.0
20260504223152 55 116 0.0 0.0 0.00 0.00 0.00 97 1022.0
20260504222639 56 116 0.0 0.0 0.00 0.00 0.00 96 1022.1
20260504222124 56 116 0.0 0.0 0.00 0.00 0.00 96 1022.1
20260504221659 56 116 0.0 1.0 0.00 0.00 0.00 96 1022.3
20260504221138 56 116 0.0 1.0 0.00 0.00 0.00 96 1022.2
20260504220641 56 116 0.0 0.0 0.00 0.00 0.00 96 1022.2
20260504220137 56 116 0.0 1.0 0.00 0.00 0.00 96 1022.4
20260504215658 56 116 0.0 0.0 0.00 0.00 0.00 96 1022.5
20260504215124 57 116 0.0 0.0 0.00 0.00 0.00 95 1022.5
20260504214648 57 116 0.0 0.0 0.00 0.00 0.00 95 1022.6
20260504214137 57 116 0.0 0.0 0.00 0.00 0.00 95 1022.7
20260504213629 57 116 0.0 0.0 0.00 0.00 0.00 95 1022.8
20260504213203 57 116 0.0 0.0 0.00 0.00 0.00 95 1022.8
20260504212650 57 116 0.0 0.0 0.00 0.00 0.00 94 1022.8
20260504212157 58 116 0.0 3.0 0.00 0.00 0.00 94 1022.8
20260504211625 58 116 0.0 3.0 0.00 0.00 0.00 94 1022.8
20260504211128 58 116 0.0 1.0 0.00 0.00 0.00 93 1022.8
20260504210638 58 116 0.0 3.0 0.00 0.00 0.00 93 1022.8
20260504210126 58 116 0.0 3.0 0.00 0.00 0.00 93 1022.9
20260504205655 59 116 1.0 2.0 0.00 0.00 0.00 93 1022.9
20260504205124 59 116 0.0 2.0 0.00 0.00 0.00 92 1023.0
20260504204631 59 116 0.0 2.0 0.00 0.00 0.00 92 1023.0
20260504204140 60 116 0.0 2.0 0.00 0.00 0.00 91 1023.0
20260504203649 60 88 0.0 4.0 0.00 0.00 0.00 91 1023.0
20260504203138 60 88 0.0 4.0 0.00 0.00 0.00 91 1023.0
20260504202625 60 341 1.0 7.0 0.00 0.00 0.00 91 1023.1
20260504202134 60 44 2.0 7.0 0.00 0.00 0.00 91 1023.2
20260504201643 60 84 1.0 6.0 0.00 0.00 0.00 91 1023.2
20260504201131 60 44 2.0 5.0 0.00 0.00 0.00 91 1023.2
20260504200640 60 50 1.0 7.0 0.00 0.00 0.00 90 1023.2
20260504200150 60 38 4.0 7.0 0.00 0.00 0.00 90 1023.2
20260504195635 60 64 2.0 6.0 0.00 0.00 0.00 90 1023.2
20260504195146 61 4 2.0 6.0 0.00 0.00 0.00 90 1023.2
20260504194630 61 73 3.0 8.0 0.00 0.00 0.00 90 1023.2
20260504194140 61 358 3.0 8.0 0.00 0.00 0.00 90 1023.2
20260504193628 61 339 3.0 8.0 0.00 0.00 0.00 89 1023.2
20260504193137 60 19 4.0 8.0 0.00 0.00 0.00 89 1023.1
20260504192626 60 57 3.0 8.0 0.00 0.00 0.00 89 1023.0
20260504192131 60 106 2.0 8.0 0.00 0.00 0.00 89 1023.1
20260504191133 60 121 1.0 4.0 0.00 0.00 0.00 88 1023.1
20260504190643 60 85 1.0 4.0 0.00 0.00 0.00 88 1023.0
20260504190227 60 65 1.0 4.0 0.00 0.00 0.00 87 1023.0
20260504185631 60 96 1.0 4.0 0.00 0.00 0.00 86 1023.0
20260504185137 61 114 0.0 3.0 0.00 0.00 0.00 86 1023.1
20260504184646 61 122 0.0 4.0 0.00 0.00 0.00 85 1023.0
20260504184132 62 97 0.0 4.0 0.00 0.00 0.00 84 1023.1
20260504183640 62 15 1.0 5.0 0.00 0.00 0.00 84 1023.2
20260504183128 62 108 2.0 7.0 0.00 0.00 0.00 83 1023.2
20260504182636 63 95 3.0 7.0 0.00 0.00 0.00 83 1023.2
20260504182123 63 42 3.0 8.0 0.00 0.00 0.00 83 1023.2
20260504181639 63 137 2.0 8.0 0.00 0.00 0.00 82 1023.1
20260504181129 63 35 4.0 9.0 0.00 0.00 0.00 82 1023.1
20260504180659 63 350 4.0 9.0 0.00 0.00 0.00 81 1023.1
20260504180126 64 97 2.0 8.0 0.00 0.00 0.00 81 1023.1
20260504175635 64 284 2.0 8.0 0.00 0.00 0.00 81 1023.0
20260504175125 64 4 2.0 7.0 0.00 0.00 0.00 81 1023.0
20260504174633 64 74 2.0 7.0 0.00 0.00 0.00 81 1023.1
20260504174203 64 344 3.0 7.0 0.00 0.00 0.00 81 1023.2
20260504173631 64 347 2.0 7.0 0.00 0.00 0.00 81 1023.1
20260504173131 64 343 1.0 8.0 0.00 0.00 0.00 81 1023.2
20260504172640 64 29 2.0 8.0 0.00 0.00 0.00 81 1023.2
20260504172128 64 294 2.0 7.0 0.00 0.00 0.00 81 1023.2
20260504171658 64 355 2.0 8.0 0.00 0.00 0.00 81 1023.1
20260504171147 64 341 2.0 8.0 0.00 0.00 0.00 81 1023.0
20260504170654 64 300 2.0 6.0 0.00 0.00 0.00 80 1023.1
20260504170141 64 57 2.0 7.0 0.00 0.00 0.00 80 1023.1
20260504160131 66 51 1.0 4.0 0.00 0.00 0.00 76 1022.8
20260504151134 71 352 2.0 8.0 0.00 0.00 0.00 67 1022.8
20260504150638 71 334 2.0 8.0 0.00 0.00 0.00 67 1022.8
20260504150134 72 262 3.0 8.0 0.00 0.00 0.00 65 1022.8